Regional Weather Roundup
Issued by NWS

Home | Current Version | Previous Version | Text Only | Print | Product List | Glossary On
Versions: 1 2 3 4 5 6 7 8 9 10 11 12 13 14 15 16 17 18 19 20 21 22 23 24 25 26 27 28 29 30 31 32 33 34 35 36 37 38 39 40 41 42 43 44 45 46 47 48 49 50
000
ASUS42 KKEY 271410
RWRKEY

FLORIDA REGIONAL WEATHER ROUNDUP FOR THE FLORIDA KEYS
NATIONAL WEATHER SERVICE KEY WEST FLORIDA
1000 AM EDT WED MAY 27 2015

...SOUTH FLORIDA AND THE KEYS...

CITY           SKY/WX    TMP DP  RH WIND       PRES   REMARKS
FORT MYERS     SUNNY     82  67  60 E10       30.14S
SW REGIONAL AP MOSUNNY   82  66  58 E12       30.15R
NAPLES         MOSUNNY   82  70  66 E9        30.13S
MIAMI          MOSUNNY   84  68  58 E16       30.12S
WEST KENDALL   MOSUNNY   85  68  56 E15G23    30.11S
HOMESTEAD      SUNNY     83  69  62 E12       30.11S
MARATHON       MOSUNNY   84  72  67 E14G23    30.10R
BOCA CHICA NAS MOSUNNY   84  69  60 E15       30.10S
KEY WEST INTL  MOSUNNY   83  68  60 E15       30.11R

...INTERNATIONAL WEATHER...

CITY           SKY/WX    TMP DP  RH WIND       PRES   REMARKS
NASSAU BAHAMAS MOSUNNY   81  66  61 E12       30.13S
CANCUN MEXICO  MOSUNNY   84  75  74 E5        30.04S HX  92
COZUMEL MEXICO MOSUNNY   82  73  74 CALM      30.04R

ADJACENT COASTAL WATERS...

STATION/POSITION TIME  SKY/WX   TEMP    WIND        PRES    WAVE
                                AIR SEA DIR/SP/G            HT/PER
                 (UTC)          (F)     (DEG/KT/KT) (MB)    (FT/S)
PULASKI SHOAL LI 1300            81     100/ 18/ 19 1019.3R
SAND KEY         1350            81      90/ 18/ 20 1019.1F
SOMBRERO KEY     1400            81      90/ 20/ 21 1019.4R
LONG KEY         1400            80 82  100/ 15/ 17 1020.2R
MOLASSES REEF    1400            80 83  100/ 17/ 19 1019.3R
FOWEY ROCKS      NOT AVBL

$$



USA.gov is the U.S. government's official web portal to all federal, state and local government web resources and services.